Location: Village de las Huertas
(35.3014°N, 106.4095°W)
Time: 16:42:49
(UTC+00:00)

SL-27 R/B - Pass Details

Date: 29 October 2020
Orbit: 419 x 469 km, 74.7° (Epoch: 25 November)

Event Time Altitude Azimuth Distance (km) Brightness Sun altitude
Rises 12:33:26 0° 195° (SSW) 2,479 6.1 -11.1°
Reaches altitude 10° 12:35:30 10° 195° (SSW) 1,613 5.2 -10.6°
Maximum altitude 12:39:04 89° 123° (ESE) 474 2.5 -9.9°
Drops below altitude 10° 12:42:41 10° 17° (NNE) 1,635 5.3 -9.2°
Sets 12:44:48 0° 17° (NNE) 2,516 6.3 -8.8°
